THORAD AGENA D DEB, 4208

Orbit data source: Space-Track

THORAD AGENA D DEB, 4208 is space debris in LEO originally from a launch on Tue, 30 Sep 1969 UTC launched from the Air Force Western Test Range (AFWTR). Debris objects in space refer to the collection of defunct objects orbiting the Earth. Examples of debris include non-operational satellites, rocket bodies, and fragments generated from explosions, collisions, or faulty payload assembly.

Loading next visibility...
Identifier
4208, 1969-082BX
Orbit
LEO
Country
Flag of USUS
Related business
Manufacturer
Unknown
Mission
Spacecraft
Bus & Motor
Unknown
Mass
Unknown
Launch date (UTC)
1969-09-30 (57 years ago)
Launch vehicle
Unknown
Launch site
Air Force Western Test Range (AFWTR)
Object type
Payload
Rocket body
Debris
Shape & HBR
Unknown shape, 0.1 m
Radar Cross Section
Small (<0.1 m²)

Expand to show TLE details & history
Last TLE update: 23 hours ago

TLE from 23 hours ago
0 THORAD AGENA D DEB
1 04208U 69082BX  26093.43677961  .00000948  00000-0  42189-3 0  9990
2 04208  70.0830 125.8256 0010230  82.3285 277.8999 14.25794872999262
Epoch: 2026-04-03T10:28Z
TLE epoch observation values (Epoch: 2026-04-03T10:28:57.758Z)
Latitude
0.00005°
Longitude
136.81403°
Altitude
807.169 km
Speed
7.451 km/s
True Right ascension
08h 23m 18s
True Declination
0° 00' 00"
Sunlit
Object was in daylight at epoch
Visualization orbit readout
Latitude
Unknown
Longitude
Unknown
Altitude
Unknown
Speed
Unknown
Apparent Right ascension
Unknown
Apparent Declination
Unknown
Sunlit
N/A
Visualization observer readout
Local Sidereal Time
15:15:53
Azimuth
Unknown
Elevation
Unknown
Doppler factor
Unknown
Orbital elements
Apogee altitude
811.175 km
Perigee altitude
796.481 km
Semi-major axis
7,181.965 km
Eccentricity
0.00102
Inclination
70.083°
RAAN
125.8256°
Arg. of periapsis
82.3285°
True anomaly
277.78377°
Mean anomaly
277.8999°
Eccentric anomaly
277.84183°
Mean motion
3.56597 °/min
Orbital period
100.95 mins
BSTAR
0.00042189
Loading maneuver chart data...
Computing Atmospheric mass density...

Documentation

Showing up to 5 results
|